{"data":{"norad_id":65441,"epoch":"2026-09-20T12:40:13.532160Z","epoch_age_seconds":112386,"freshness":"FRESH","line1":"1 65441U 25194H   26263.52793440  .00011994  00000+0  37317-3 0  9991","line2":"2 65441  97.2863 113.1953 0001973  84.5723 275.5744 15.33449583 59079","mean_motion":15.33449583,"eccentricity":0.0001973,"inclination_deg":97.2863,"raan_deg":113.1953,"arg_perigee_deg":84.5723,"mean_anomaly_deg":275.5744,"bstar":0.00037317,"rev_number":5907,"period_min":93.905924000633,"perigee_km":464.17928332042,"apogee_km":466.8797941366,"semimajor_km":6843.6665387285,"source":"CELESTRAK","updated_at":"2026-09-21T09:00:35.609786Z"}}